GW1766 Weather Reports


time (UTC)temp
C
wind
direction
speed
KPH
gust
KPH
rain 1hr
cm
rain 24hr
cm
rain mn
cm
humidity
%
barometer
mb
20260502152051 11 360 3.2 9.7 0.00 0.00 0.00 42 1021.8
20260502151617 11 255 1.6 8.0 0.00 0.00 0.00 44 1021.8
20260502151051 11 263 1.6 4.8 0.00 0.00 0.00 42 1021.8
20260502150551 11 198 0.0 8.0 0.00 0.00 0.00 41 1021.8
20260502150105 11 263 1.6 8.0 0.00 0.00 0.00 44 1021.9
20260502130553 5 0 0.0 3.2 0.00 0.00 0.00 60 1022.1
20260502123553 3 0 0.0 0.0 0.00 0.00 0.00 58 1022.0
20260502123103 3 0 0.0 0.0 0.00 0.00 0.00 59 1022.0
20260502122553 3 0 0.0 0.0 0.00 0.00 0.00 60 1021.9
20260502122052 3 0 0.0 0.0 0.00 0.00 0.00 60 1021.9
20260502121555 3 0 0.0 0.0 0.00 0.00 0.00 59 1021.9
20260502121052 3 0 0.0 0.0 0.00 0.00 0.00 60 1021.9
20260502120549 3 0 0.0 0.0 0.00 0.00 0.00 59 1021.9
20260502115551 3 0 0.0 0.0 0.00 0.00 0.00 60 1021.9
20260502115053 3 0 0.0 0.0 0.00 0.00 0.00 59 1021.8
20260502114551 3 0 0.0 0.0 0.00 0.00 0.00 59 1021.9
20260502114053 3 0 0.0 0.0 0.00 0.00 0.00 59 1021.9
20260502113554 3 0 0.0 0.0 0.00 0.00 0.00 58 1021.8
20260502113053 3 0 0.0 0.0 0.00 0.00 0.00 58 1021.8
20260502112553 3 0 0.0 0.0 0.00 0.00 0.00 58 1021.9
20260502112052 3 0 0.0 0.0 0.00 0.00 0.00 58 1021.9
20260502111556 3 0 0.0 0.0 0.00 0.00 0.00 58 1021.8
20260502111052 3 0 0.0 0.0 0.00 0.00 0.00 57 1021.8
20260502110549 3 0 0.0 0.0 0.00 0.00 0.00 57 1021.7
20260502110058 3 0 0.0 0.0 0.00 0.00 0.00 57 1021.8
20260502105556 3 0 0.0 0.0 0.00 0.00 0.00 57 1021.7
20260502105053 3 0 0.0 0.0 0.00 0.00 0.00 56 1021.7
20260502104552 3 0 0.0 0.0 0.00 0.00 0.00 56 1021.8
20260502104053 3 0 0.0 0.0 0.00 0.00 0.00 56 1021.8
20260502103552 3 0 0.0 0.0 0.00 0.00 0.00 56 1021.8
20260502103058 3 0 0.0 0.0 0.00 0.00 0.00 56 1021.7
20260502102552 3 0 0.0 0.0 0.00 0.00 0.00 56 1021.6
20260502102051 3 0 0.0 0.0 0.00 0.00 0.00 56 1021.7
20260502101626 3 0 0.0 0.0 0.00 0.00 0.00 56 1021.7
20260502101053 3 0 0.0 0.0 0.00 0.00 0.00 56 1021.7
20260502100554 3 0 0.0 0.0 0.00 0.00 0.00 56 1021.7
20260502100118 4 0 0.0 0.0 0.00 0.00 0.00 55 1021.7
20260502091051 3 0 0.0 0.0 0.00 0.00 0.00 59 1021.6
20260502090552 3 0 0.0 0.0 0.00 0.00 0.00 57 1021.6
20260502080106 4 0 0.0 0.0 0.00 0.00 0.00 57 1021.6
20260502071052 4 0 0.0 0.0 0.00 0.00 0.00 56 1021.6
20260502070553 4 0 0.0 0.0 0.00 0.00 0.00 56 1021.7
20260502070057 4 0 0.0 0.0 0.00 0.00 0.00 57 1021.7
20260502065550 5 0 0.0 0.0 0.00 0.00 0.00 56 1021.7
20260502065049 5 0 0.0 0.0 0.00 0.00 0.00 57 1021.8
20260502064558 5 0 0.0 0.0 0.00 0.00 0.00 57 1021.7
20260502064049 5 0 0.0 0.0 0.00 0.00 0.00 57 1021.8
20260502063552 5 0 0.0 0.0 0.00 0.00 0.00 56 1021.8
20260502063053 5 0 0.0 0.0 0.00 0.00 0.00 54 1021.8
20260502062553 5 0 0.0 0.0 0.00 0.00 0.00 55 1021.8
20260502062052 5 0 0.0 0.0 0.00 0.00 0.00 55 1021.8
20260502061554 5 0 0.0 0.0 0.00 0.00 0.00 54 1021.8
20260502061049 5 0 0.0 0.0 0.00 0.00 0.00 54 1021.7
20260502060552 5 0 0.0 0.0 0.00 0.00 0.00 54 1021.8
20260502060057 5 0 0.0 0.0 0.00 0.00 0.00 54 1021.8
20260502055550 5 0 0.0 0.0 0.00 0.00 0.00 53 1021.8
20260502055052 5 0 0.0 0.0 0.00 0.00 0.00 54 1021.7
20260502054559 5 0 0.0 0.0 0.00 0.00 0.00 54 1021.7
20260502054051 5 0 0.0 0.0 0.00 0.00 0.00 54 1021.7
20260502053551 5 0 0.0 1.6 0.00 0.00 0.00 53 1021.7
20260502053111 5 0 0.0 1.6 0.00 0.00 0.00 53 1021.6
20260502052551 5 0 0.0 1.6 0.00 0.00 0.00 53 1021.6
20260502052051 5 0 0.0 0.0 0.00 0.00 0.00 53 1021.6
20260502051552 5 0 0.0 0.0 0.00 0.00 0.00 52 1021.5
20260502051050 5 0 0.0 0.0 0.00 0.00 0.00 53 1021.4
20260502050552 5 0 0.0 0.0 0.00 0.00 0.00 53 1021.5
20260502050054 5 0 0.0 0.0 0.00 0.00 0.00 53 1021.4
20260502045552 5 0 0.0 0.0 0.00 0.00 0.00 54 1021.3
20260502045051 5 0 0.0 0.0 0.00 0.00 0.00 55 1021.4
20260502044555 5 0 0.0 0.0 0.00 0.00 0.00 54 1021.2
20260502044051 5 0 0.0 0.0 0.00 0.00 0.00 53 1021.2
20260502043551 6 0 0.0 0.0 0.00 0.00 0.00 53 1021.2
20260502043107 6 0 0.0 0.0 0.00 0.00 0.00 54 1021.2
20260502042551 6 0 0.0 0.0 0.00 0.00 0.00 53 1021.1
20260502042050 6 0 0.0 0.0 0.00 0.00 0.00 52 1021.1
20260502041554 6 0 0.0 0.0 0.00 0.00 0.00 52 1021.1
20260502041053 6 0 0.0 0.0 0.00 0.00 0.00 52 1021.1
20260502040553 6 0 0.0 1.6 0.00 0.00 0.00 51 1021.0
20260502040057 6 0 0.0 1.6 0.00 0.00 0.00 50 1021.0
20260502035552 6 0 0.0 1.6 0.00 0.00 0.00 53 1021.0
20260502035059 6 0 0.0 0.0 0.00 0.00 0.00 50 1021.0
20260502034557 6 0 0.0 0.0 0.00 0.00 0.00 48 1021.0
20260502034052 6 0 0.0 0.0 0.00 0.00 0.00 48 1021.1
20260502033553 6 0 0.0 0.0 0.00 0.00 0.00 49 1021.0
20260502033104 6 0 0.0 0.0 0.00 0.00 0.00 50 1021.0
20260502032551 6 0 0.0 0.0 0.00 0.00 0.00 49 1021.0
20260502032052 6 0 0.0 0.0 0.00 0.00 0.00 48 1021.0
20260502031553 7 0 0.0 0.0 0.00 0.00 0.00 48 1020.9
20260502031051 7 0 0.0 0.0 0.00 0.00 0.00 48 1021.0
20260502030551 7 0 0.0 0.0 0.00 0.00 0.00 47 1020.9
20260502030100 7 0 0.0 0.0 0.00 0.00 0.00 48 1020.9
20260502025552 7 0 0.0 1.6 0.00 0.00 0.00 46 1020.9
20260502025052 7 0 0.0 1.6 0.00 0.00 0.00 46 1020.8
20260502024554 7 0 0.0 1.6 0.00 0.00 0.00 47 1020.7
20260502024052 7 0 0.0 0.0 0.00 0.00 0.00 45 1020.7
20260502023553 7 0 0.0 0.0 0.00 0.00 0.00 47 1020.5
20260502023112 7 0 0.0 0.0 0.00 0.00 0.00 46 1020.5
20260502022550 7 0 0.0 0.0 0.00 0.00 0.00 46 1020.5
20260502022051 7 0 0.0 0.0 0.00 0.00 0.00 46 1020.5
20260502021559 8 0 0.0 1.6 0.00 0.00 0.00 45 1020.5
20260502021055 8 0 0.0 1.6 0.00 0.00 0.00 46 1020.4
20260502020550 8 26 0.0 0.0 0.00 0.00 0.00 45 1020.4
20260502015549 8 0 0.0 0.0 0.00 0.00 0.00 42 1020.1
20260502015051 8 0 0.0 0.0 0.00 0.00 0.00 42 1020.1
20260502014555 8 0 0.0 0.0 0.00 0.00 0.00 42 1020.0
20260502014053 9 0 0.0 0.0 0.00 0.00 0.00 42 1020.0
20260502013552 9 0 0.0 0.0 0.00 0.00 0.00 42 1019.9
20260502013054 9 0 0.0 0.0 0.00 0.00 0.00 42 1020.0
20260502012550 10 0 0.0 0.0 0.00 0.00 0.00 41 1020.0
20260502012049 10 0 0.0 4.8 0.00 0.00 0.00 42 1019.9
20260502011605 10 0 0.0 4.8 0.00 0.00 0.00 41 1020.0
20260502011050 10 0 0.0 4.8 0.00 0.00 0.00 40 1020.0
20260502010554 10 0 0.0 1.6 0.00 0.00 0.00 42 1019.9
20260502010056 10 0 0.0 1.6 0.00 0.00 0.00 42 1019.9
20260502005550 10 0 0.0 4.8 0.00 0.00 0.00 41 1019.9
20260502005053 10 0 0.0 6.4 0.00 0.00 0.00 43 1019.8
20260502004611 10 17 0.0 6.4 0.00 0.00 0.00 41 1019.9
20260502004049 11 0 0.0 3.2 0.00 0.00 0.00 40 1019.7
20260502003549 11 0 0.0 3.2 0.00 0.00 0.00 39 1019.7
20260502003052 11 0 0.0 4.8 0.00 0.00 0.00 37 1019.7
20260502002549 11 0 0.0 4.8 0.00 0.00 0.00 39 1019.6
20260502002051 11 30 0.0 6.4 0.00 0.00 0.00 40 1019.5
20260502001555 11 0 1.6 6.4 0.00 0.00 0.00 36 1019.5
20260502001049 11 0 1.6 4.8 0.00 0.00 0.00 39 1019.4
20260502000549 11 0 0.0 4.8 0.00 0.00 0.00 37 1019.5
20260502000054 11 117 0.0 9.7 0.00 0.00 0.00 38 1019.4
20260501235550 11 0 1.6 9.7 0.00 0.00 0.00 36 1019.4
20260501235050 12 360 1.6 6.4 0.00 0.00 0.00 35 1019.3
20260501234557 12 62 1.6 9.7 0.00 0.00 0.00 36 1019.3
20260501234050 12 73 1.6 9.7 0.00 0.00 0.00 36 1019.3
20260501233551 12 65 1.6 8.0 0.00 0.00 0.00 36 1019.4
20260501233053 12 26 3.2 8.0 0.00 0.00 0.00 32 1019.4
20260501232549 12 34 1.6 9.7 0.00 0.00 0.00 34 1019.3
20260501232057 12 344 1.6 9.7 0.00 0.00 0.00 33 1019.4
20260501231603 12 29 1.6 6.4 0.00 0.00 0.00 33 1019.3
20260501231051 12 0 1.6 9.7 0.00 0.00 0.00 34 1019.3
20260501230550 12 86 1.6 9.7 0.00 0.00 0.00 35 1019.2
20260501230057 12 42 1.6 9.7 0.00 0.00 0.00 34 1019.2
20260501225551 12 11 1.6 9.7 0.00 0.00 0.00 35 1019.1
20260501225051 12 51 3.2 9.7 0.00 0.00 0.00 34 1019.2
20260501224600 12 269 3.2 9.7 0.00 0.00 0.00 33 1019.3
20260501224050 13 34 1.6 9.7 0.00 0.00 0.00 34 1019.3
20260501223551 13 0 3.2 9.7 0.00 0.00 0.00 32 1019.3
20260501223112 13 347 3.2 9.7 0.00 0.00 0.00 31 1019.3
20260501222550 13 258 3.2 8.0 0.00 0.00 0.00 32 1019.3
20260501222050 13 298 3.2 8.0 0.00 0.00 0.00 32 1019.4
20260501221558 13 292 1.6 8.0 0.00 0.00 0.00 32 1019.3
20260501221049 13 11 3.2 8.0 0.00 0.00 0.00 32 1019.3
20260501220550 13 349 1.6 8.0 0.00 0.00 0.00 31 1019.4
20260501220058 13 32 3.2 8.0 0.00 0.00 0.00 30 1019.3
20260501215550 13 360 3.2 8.0 0.00 0.00 0.00 29 1019.3
20260501215051 14 341 3.2 8.0 0.00 0.00 0.00 30 1019.2
20260501214559 13 332 1.6 12.9 0.00 0.00 0.00 31 1019.3
20260501214051 13 58 3.2 12.9 0.00 0.00 0.00 32 1019.3
20260501213550 13 329 3.2 8.0 0.00 0.00 0.00 33 1019.3
20260501213111 13 337 1.6 8.0 0.00 0.00 0.00 34 1019.3
20260501212550 13 340 1.6 8.0 0.00 0.00 0.00 34 1019.4
20260501212050 13 51 3.2 8.0 0.00 0.00 0.00 34 1019.3
20260501211557 13 0 3.2 9.7 0.00 0.00 0.00 34 1019.3
20260501211049 13 300 3.2 9.7 0.00 0.00 0.00 33 1019.3
20260501210550 12 271 3.2 22.5 0.00 0.00 0.00 35 1019.5
20260501210057 12 360 4.8 22.5 0.00 0.00 0.00 32 1019.5
20260501205552 12 211 3.2 8.0 0.00 0.00 0.00 35 1019.4
20260501205051 12 98 1.6 8.0 0.00 0.00 0.00 36 1019.6
20260501204600 13 360 4.8 8.0 0.00 0.00 0.00 32 1019.7
20260501204050 13 347 3.2 8.0 0.00 0.00 0.00 35 1019.6
20260501203550 12 284 0.0 8.0 0.00 0.00 0.00 38 1019.6
20260501203103 12 360 1.6 8.0 0.00 0.00 0.00 34 1019.7
20260501202549 12 360 1.6 8.0 0.00 0.00 0.00 36 1019.8
20260501202050 12 32 1.6 6.4 0.00 0.00 0.00 36 1019.9
20260501201606 12 59 1.6 12.9 0.00 0.00 0.00 37 1019.8
20260501201053 12 34 3.2 12.9 0.00 0.00 0.00 37 1019.9
20260501200551 12 146 3.2 12.9 0.00 0.00 0.00 36 1019.9
20260501200051 12 78 3.2 9.7 0.00 0.00 0.00 35 1020.0
20260501195551 13 329 1.6 9.7 0.00 0.00 0.00 34 1019.8
20260501195052 13 79 3.2 11.3 0.00 0.00 0.00 33 1019.9
20260501194556 13 81 3.2 11.3 0.00 0.00 0.00 34 1019.7
20260501194050 13 360 3.2 11.3 0.00 0.00 0.00 34 1019.8
20260501193554 13 309 3.2 12.9 0.00 0.00 0.00 35 1019.8
20260501193057 13 329 1.6 12.9 0.00 0.00 0.00 33 1019.8
20260501192550 13 360 3.2 9.7 0.00 0.00 0.00 35 1019.7
20260501192050 13 360 1.6 9.7 0.00 0.00 0.00 35 1019.7
20260501191554 13 294 3.2 9.7 0.00 0.00 0.00 35 1019.8
20260501191050 12 0 3.2 9.7 0.00 0.00 0.00 35 1019.8
20260501190550 12 227 3.2 9.7 0.00 0.00 0.00 35 1019.8
20260501190054 12 254 1.6 8.0 0.00 0.00 0.00 36 1019.8
20260501185551 12 360 3.2 8.0 0.00 0.00 0.00 35 1019.8
20260501185050 12 360 1.6 8.0 0.00 0.00 0.00 37 1019.7
20260501184607 12 292 1.6 12.9 0.00 0.00 0.00 41 1019.7
20260501184054 12 0 1.6 14.5 0.00 0.00 0.00 37 1019.8
20260501183549 12 344 3.2 14.5 0.00 0.00 0.00 38 1019.9
20260501183058 12 226 3.2 9.7 0.00 0.00 0.00 38 1019.6
20260501182551 12 360 3.2 12.9 0.00 0.00 0.00 41 1019.8
20260501182050 12 30 3.2 14.5 0.00 0.00 0.00 37 1019.7
20260501181554 12 336 3.2 14.5 0.00 0.00 0.00 38 1019.6
20260501181050 12 44 3.2 8.0 0.00 0.00 0.00 40 1019.8
20260501180551 12 54 3.2 9.7 0.00 0.00 0.00 41 1019.8
20260501180055 12 347 3.2 9.7 0.00 0.00 0.00 42 1019.7
20260501175552 12 69 3.2 11.3 0.00 0.00 0.00 42 1019.7
20260501175052 12 63 1.6 11.3 0.00 0.00 0.00 42 1019.7
20260501174554 11 324 3.2 12.9 0.00 0.00 0.00 42 1019.7
20260501174051 11 259 3.2 12.9 0.00 0.00 0.00 41 1019.9
20260501173554 12 293 3.2 12.9 0.00 0.00 0.00 43 1019.8
20260501173110 11 20 3.2 11.3 0.00 0.00 0.00 42 1019.7
20260501172551 12 208 3.2 11.3 0.00 0.00 0.00 41 1019.8
20260501172051 12 360 3.2 12.9 0.00 0.00 0.00 43 1019.9
20260501171552 12 62 1.6 12.9 0.00 0.00 0.00 45 1019.8
20260501171128 11 342 3.2 12.9 0.00 0.00 0.00 44 1019.8
20260501170551 11 135 4.8 12.9 0.00 0.00 0.00 46 1019.6
20260501170101 11 309 3.2 9.7 0.00 0.00 0.00 46 1019.6
20260501165552 11 348 3.2 9.7 0.00 0.00 0.00 47 1019.5
20260501165056 11 315 3.2 11.3 0.00 0.00 0.00 47 1019.6
20260501164603 11 56 3.2 14.5 0.00 0.00 0.00 48 1019.5
20260501164054 11 26 4.8 14.5 0.00 0.00 0.00 47 1019.5
20260501163552 11 37 6.4 12.9 0.00 0.00 0.00 51 1019.4
20260501163101 11 9 3.2 9.7 0.00 0.00 0.00 55 1019.3
20260501162552 10 319 3.2 9.7 0.00 0.00 0.00 54 1019.3
20260501162051 10 341 3.2 9.7 0.00 0.00 0.00 57 1019.4
20260501161556 10 67 1.6 11.3 0.00 0.00 0.00 56 1019.3
20260501161051 11 285 3.2 12.9 0.00 0.00 0.00 55 1019.3
20260501160551 11 360 3.2 12.9 0.00 0.00 0.00 58 1019.3